Information on these data can be found in provided Readme document
Contact Info: Zachary Fasnacht (zachary.fasnacht@ssaihq.com); Nickolay Krotkov (nickolay.a.krotkov@nasa.gov); Lok Lamsal (lok.lamsal@nasa.gov)

FillValue: -999.
ScaleFactor: 1e15
Units: molecules/cm^2

Date(yyyy-mm-dd),City,Country,LonCenter,LatCenter,BoundingCoordinates,Median,Q1,Q3,Mean,Baseline_Median,Baseline_Q1,Baseline_Q3,Baseline_Mean,NumGoodSamples,NumTotalSamples
2015-01-01,Seattle,USA,-122.3321,47.6062,[-122.8321 47.1062 -121.8321 48.1062],2.587,1.404,3.754,2.892,2.807,1.577,4.368,3.237,121.0,620.0
2015-01-02,Seattle,USA,-122.3321,47.6062,[-122.8321 47.1062 -121.8321 48.1062],2.846,2.04,3.814,3.003,3.037,1.786,4.588,3.395,112.0,624.0
2015-01-03,Seattle,USA,-122.3321,47.6062,[-122.8321 47.1062 -121.8321 48.1062],2.846,2.04,3.814,3.003,3.115,1.882,4.578,3.458,112.0,627.0
2015-01-04,Seattle,USA,-122.3321,47.6062,[-122.8321 47.1062 -121.8321 48.1062],2.846,2.04,3.814,3.003,3.122,1.885,4.585,3.466,112.0,624.0
2015-01-05,Seattle,USA,-122.3321,47.6062,[-122.8321 47.1062 -121.8321 48.1062],2.81,1.865,3.883,2.995,3.214,2.091,4.795,3.509,128.0,626.0
2015-01-06,Seattle,USA,-122.3321,47.6062,[-122.8321 47.1062 -121.8321 48.1062],3.051,1.55,4.246,3.09,3.295,1.89,4.915,3.576,118.0,625.0
2015-01-07,Seattle,USA,-122.3321,47.6062,[-122.8321 47.1062 -121.8321 48.1062],3.566,2.04,4.788,3.575,3.616,2.048,5.227,3.845,98.0,632.0
2015-01-08,Seattle,USA,-122.3321,47.6062,[-122.8321 47.1062 -121.8321 48.1062],3.625,2.421,5.24,3.943,4.058,2.417,5.976,4.343,82.0,615.0
2015-01-09,Seattle,USA,-122.3321,47.6062,[-122.8321 47.1062 -121.8321 48.1062],4.435,2.248,5.88,4.494,4.322,2.342,6.319,4.454,46.0,565.0
2015-01-10,Seattle,USA,-122.3321,47.6062,[-122.8321 47.1062 -121.8321 48.1062],4.435,2.248,5.88,4.494,4.337,2.317,6.303,4.469,46.0,577.0
2015-01-11,Seattle,USA,-122.3321,47.6062,[-122.8321 47.1062 -121.8321 48.1062],4.435,2.364,6.153,4.617,4.33,2.243,6.365,4.481,45.0,570.0
2015-01-12,Seattle,USA,-122.3321,47.6062,[-122.8321 47.1062 -121.8321 48.1062],4.535,2.364,6.244,4.757,4.42,2.324,6.359,4.548,55.0,575.0
2015-01-13,Seattle,USA,-122.3321,47.6062,[-122.8321 47.1062 -121.8321 48.1062],4.535,2.364,6.244,4.757,4.633,2.61,6.552,4.684,55.0,576.0
2015-01-14,Seattle,USA,-122.3321,47.6062,[-122.8321 47.1062 -121.8321 48.1062],4.535,2.364,6.244,4.757,4.644,2.32,6.443,4.7,55.0,582.0
2015-01-15,Seattle,USA,-122.3321,47.6062,[-122.8321 47.1062 -121.8321 48.1062],4.657,2.421,6.244,4.852,4.588,2.333,6.483,4.657,53.0,575.0
2015-01-16,Seattle,USA,-122.3321,47.6062,[-122.8321 47.1062 -121.8321 48.1062],5.451,2.81,6.355,4.985,4.487,2.248,6.115,4.46,33.0,577.0
2015-01-17,Seattle,USA,-122.3321,47.6062,[-122.8321 47.1062 -121.8321 48.1062],5.451,2.81,6.355,4.985,4.399,2.189,5.829,4.193,33.0,577.0
2015-01-18,Seattle,USA,-122.3321,47.6062,[-122.8321 47.1062 -121.8321 48.1062],3.173,1.55,6.244,3.772,4.061,1.89,6.161,4.074,41.0,579.0
2015-01-19,Seattle,USA,-122.3321,47.6062,[-122.8321 47.1062 -121.8321 48.1062],4.625,1.704,5.748,3.885,4.29,1.905,5.962,4.051,74.0,584.0
2015-01-20,Seattle,USA,-122.3321,47.6062,[-122.8321 47.1062 -121.8321 48.1062],4.657,1.567,6.244,4.062,4.448,1.723,6.364,4.232,58.0,581.0
2015-01-21,Seattle,USA,-122.3321,47.6062,[-122.8321 47.1062 -121.8321 48.1062],4.021,1.567,5.628,3.726,3.992,1.671,5.976,3.928,85.0,583.0
2015-01-22,Seattle,USA,-122.3321,47.6062,[-122.8321 47.1062 -121.8321 48.1062],3.147,1.421,4.889,3.216,3.772,1.964,5.684,3.795,78.0,584.0
2015-01-23,Seattle,USA,-122.3321,47.6062,[-122.8321 47.1062 -121.8321 48.1062],3.518,1.498,4.889,3.405,3.194,1.36,5.213,3.288,84.0,587.0
2015-01-24,Seattle,USA,-122.3321,47.6062,[-122.8321 47.1062 -121.8321 48.1062],3.518,1.498,4.981,3.467,4.28,2.019,5.831,4.063,88.0,620.0
2015-01-25,Seattle,USA,-122.3321,47.6062,[-122.8321 47.1062 -121.8321 48.1062],3.518,1.498,4.981,3.467,4.28,2.019,5.831,4.063,88.0,619.0
2015-01-26,Seattle,USA,-122.3321,47.6062,[-122.8321 47.1062 -121.8321 48.1062],3.518,1.498,4.981,3.467,3.872,1.762,6.6,4.13,88.0,628.0
2015-01-27,Seattle,USA,-122.3321,47.6062,[-122.8321 47.1062 -121.8321 48.1062],3.453,1.498,4.779,3.254,3.891,1.813,6.604,4.107,78.0,618.0
2015-01-28,Seattle,USA,-122.3321,47.6062,[-122.8321 47.1062 -121.8321 48.1062],3.453,1.498,4.779,3.254,3.892,1.847,6.584,4.1,78.0,624.0
2015-01-29,Seattle,USA,-122.3321,47.6062,[-122.8321 47.1062 -121.8321 48.1062],3.453,1.498,4.779,3.254,3.892,1.847,6.584,4.1,78.0,623.0
2015-01-30,Seattle,USA,-122.3321,47.6062,[-122.8321 47.1062 -121.8321 48.1062],3.453,1.498,4.779,3.254,4.32,2.003,7.251,4.857,78.0,627.0
2015-01-31,Seattle,USA,-122.3321,47.6062,[-122.8321 47.1062 -121.8321 48.1062],3.453,1.498,4.779,3.254,4.196,1.992,7.171,4.776,78.0,622.0
2015-02-01,Seattle,USA,-122.3321,47.6062,[-122.8321 47.1062 -121.8321 48.1062],3.453,1.498,4.779,3.254,4.462,2.155,7.261,4.988,78.0,619.0
2015-02-02,Seattle,USA,-122.3321,47.6062,[-122.8321 47.1062 -121.8321 48.1062],3.825,2.235,5.217,3.809,4.736,2.577,7.486,5.275,70.0,614.0
2015-02-03,Seattle,USA,-122.3321,47.6062,[-122.8321 47.1062 -121.8321 48.1062],3.453,1.552,4.348,3.536,4.864,2.527,7.663,5.428,37.0,615.0
2015-02-04,Seattle,USA,-122.3321,47.6062,[-122.8321 47.1062 -121.8321 48.1062],3.453,1.552,4.348,3.536,4.856,2.508,7.648,5.413,37.0,618.0
2015-02-05,Seattle,USA,-122.3321,47.6062,[-122.8321 47.1062 -121.8321 48.1062],6.695,3.825,9.04,6.342,4.875,2.664,7.89,5.408,10.0,616.0
2015-02-06,Seattle,USA,-122.3321,47.6062,[-122.8321 47.1062 -121.8321 48.1062],4.326,3.825,8.697,5.527,4.536,2.637,7.492,5.166,25.0,617.0
2015-02-07,Seattle,USA,-122.3321,47.6062,[-122.8321 47.1062 -121.8321 48.1062],4.326,3.397,8.185,5.328,4.554,2.892,7.465,5.215,19.0,619.0
2015-02-08,Seattle,USA,-122.3321,47.6062,[-122.8321 47.1062 -121.8321 48.1062],3.239,2.222,4.946,3.819,4.138,2.772,5.935,4.504,26.0,626.0
2015-02-09,Seattle,USA,-122.3321,47.6062,[-122.8321 47.1062 -121.8321 48.1062],3.239,2.222,4.946,3.628,4.094,2.745,5.887,4.436,53.0,611.0
2015-02-10,Seattle,USA,-122.3321,47.6062,[-122.8321 47.1062 -121.8321 48.1062],3.239,2.222,4.946,3.628,3.931,2.708,5.733,4.411,53.0,564.0
2015-02-11,Seattle,USA,-122.3321,47.6062,[-122.8321 47.1062 -121.8321 48.1062],3.239,2.222,4.946,3.537,3.933,2.454,5.736,4.387,55.0,579.0
2015-02-12,Seattle,USA,-122.3321,47.6062,[-122.8321 47.1062 -121.8321 48.1062],3.239,2.222,4.946,3.537,4.027,2.543,5.493,4.202,55.0,571.0
2015-02-13,Seattle,USA,-122.3321,47.6062,[-122.8321 47.1062 -121.8321 48.1062],3.239,2.222,4.946,3.537,3.929,2.271,5.491,4.017,55.0,576.0
2015-02-14,Seattle,USA,-122.3321,47.6062,[-122.8321 47.1062 -121.8321 48.1062],3.239,2.222,4.946,3.537,3.253,1.533,4.609,3.098,55.0,577.0
2015-02-15,Seattle,USA,-122.3321,47.6062,[-122.8321 47.1062 -121.8321 48.1062],3.239,2.222,4.946,3.544,3.29,1.543,4.645,3.114,62.0,579.0
2015-02-16,Seattle,USA,-122.3321,47.6062,[-122.8321 47.1062 -121.8321 48.1062],3.857,2.222,4.973,3.966,3.356,1.594,4.655,3.243,76.0,575.0
2015-02-17,Seattle,USA,-122.3321,47.6062,[-122.8321 47.1062 -121.8321 48.1062],4.199,2.222,5.499,4.184,3.13,1.495,4.278,2.995,80.0,574.0
2015-02-18,Seattle,USA,-122.3321,47.6062,[-122.8321 47.1062 -121.8321 48.1062],4.199,2.222,5.499,4.184,3.131,1.519,4.641,3.088,80.0,572.0
2015-02-19,Seattle,USA,-122.3321,47.6062,[-122.8321 47.1062 -121.8321 48.1062],4.199,2.222,5.499,4.184,3.054,1.581,4.958,3.274,80.0,576.0
2015-02-20,Seattle,USA,-122.3321,47.6062,[-122.8321 47.1062 -121.8321 48.1062],4.199,2.222,5.499,4.184,3.276,1.873,5.128,3.501,80.0,579.0
2015-02-21,Seattle,USA,-122.3321,47.6062,[-122.8321 47.1062 -121.8321 48.1062],3.594,2.222,5.222,3.993,3.204,1.878,5.257,3.554,65.0,576.0
2015-02-22,Seattle,USA,-122.3321,47.6062,[-122.8321 47.1062 -121.8321 48.1062],3.486,2.222,4.973,3.972,3.441,1.855,5.275,3.684,68.0,579.0
2015-02-23,Seattle,USA,-122.3321,47.6062,[-122.8321 47.1062 -121.8321 48.1062],4.667,2.272,6.412,4.493,3.608,1.829,5.51,3.734,57.0,581.0
2015-02-24,Seattle,USA,-122.3321,47.6062,[-122.8321 47.1062 -121.8321 48.1062],4.667,2.99,7.787,5.348,3.391,1.856,5.437,3.656,41.0,587.0
2015-02-25,Seattle,USA,-122.3321,47.6062,[-122.8321 47.1062 -121.8321 48.1062],5.167,3.506,7.97,5.894,3.522,1.996,5.625,3.838,68.0,621.0
2015-02-26,Seattle,USA,-122.3321,47.6062,[-122.8321 47.1062 -121.8321 48.1062],5.648,3.962,7.868,6.148,3.751,2.144,5.655,3.996,75.0,621.0
2015-02-27,Seattle,USA,-122.3321,47.6062,[-122.8321 47.1062 -121.8321 48.1062],5.648,4.408,7.798,6.134,3.782,2.329,5.819,4.113,108.0,631.0
2015-02-28,Seattle,USA,-122.3321,47.6062,[-122.8321 47.1062 -121.8321 48.1062],5.648,4.408,7.798,6.134,3.859,2.429,5.864,4.232,108.0,624.0
2015-03-01,Seattle,USA,-122.3321,47.6062,[-122.8321 47.1062 -121.8321 48.1062],4.973,2.691,7.004,5.251,3.849,2.104,5.77,4.202,146.0,628.0
2015-03-02,Seattle,USA,-122.3321,47.6062,[-122.8321 47.1062 -121.8321 48.1062],5.167,2.691,7.004,5.328,3.749,1.878,5.671,4.045,139.0,630.0
2015-03-03,Seattle,USA,-122.3321,47.6062,[-122.8321 47.1062 -121.8321 48.1062],4.918,2.587,6.965,5.112,3.714,1.862,5.548,3.951,132.0,633.0
2015-03-04,Seattle,USA,-122.3321,47.6062,[-122.8321 47.1062 -121.8321 48.1062],4.897,2.587,6.663,5.03,3.64,1.785,5.311,3.83,131.0,630.0
2015-03-05,Seattle,USA,-122.3321,47.6062,[-122.8321 47.1062 -121.8321 48.1062],4.457,2.542,6.566,4.843,3.356,1.751,5.292,3.728,135.0,628.0
2015-03-06,Seattle,USA,-122.3321,47.6062,[-122.8321 47.1062 -121.8321 48.1062],4.457,2.542,6.566,4.843,3.391,1.731,5.058,3.642,135.0,624.0
2015-03-07,Seattle,USA,-122.3321,47.6062,[-122.8321 47.1062 -121.8321 48.1062],4.457,2.542,6.566,4.843,3.36,1.775,5.187,3.685,135.0,626.0
2015-03-08,Seattle,USA,-122.3321,47.6062,[-122.8321 47.1062 -121.8321 48.1062],4.457,2.542,6.566,4.843,3.364,1.81,5.306,3.719,135.0,630.0
2015-03-09,Seattle,USA,-122.3321,47.6062,[-122.8321 47.1062 -121.8321 48.1062],4.59,2.54,6.566,4.859,3.431,1.749,5.27,3.713,132.0,627.0
2015-03-10,Seattle,USA,-122.3321,47.6062,[-122.8321 47.1062 -121.8321 48.1062],4.59,2.54,6.566,4.859,3.39,1.898,5.151,3.651,132.0,627.0
2015-03-11,Seattle,USA,-122.3321,47.6062,[-122.8321 47.1062 -121.8321 48.1062],4.457,2.521,6.566,4.766,3.241,1.823,4.907,3.582,121.0,627.0
2015-03-12,Seattle,USA,-122.3321,47.6062,[-122.8321 47.1062 -121.8321 48.1062],4.408,2.288,6.005,4.426,3.234,1.786,4.841,3.49,94.0,630.0
2015-03-13,Seattle,USA,-122.3321,47.6062,[-122.8321 47.1062 -121.8321 48.1062],3.786,2.173,5.256,4.038,3.038,1.77,4.692,3.392,85.0,613.0
2015-03-14,Seattle,USA,-122.3321,47.6062,[-122.8321 47.1062 -121.8321 48.1062],2.521,2.065,3.648,2.63,2.974,1.674,4.6,3.283,52.0,566.0
2015-03-15,Seattle,USA,-122.3321,47.6062,[-122.8321 47.1062 -121.8321 48.1062],2.521,2.065,3.648,2.63,3.012,1.674,4.601,3.289,52.0,579.0
2015-03-16,Seattle,USA,-122.3321,47.6062,[-122.8321 47.1062 -121.8321 48.1062],2.173,2.065,3.36,2.631,2.992,1.678,4.663,3.32,14.0,568.0
2015-03-17,Seattle,USA,-122.3321,47.6062,[-122.8321 47.1062 -121.8321 48.1062],3.36,2.153,4.247,3.499,3.131,1.942,4.736,3.492,23.0,571.0
2015-03-18,Seattle,USA,-122.3321,47.6062,[-122.8321 47.1062 -121.8321 48.1062],3.36,2.173,4.475,3.795,3.233,1.796,4.78,3.51,16.0,573.0
2015-03-19,Seattle,USA,-122.3321,47.6062,[-122.8321 47.1062 -121.8321 48.1062],3.331,2.128,4.05,3.081,3.447,1.895,4.77,3.579,37.0,575.0
2015-03-20,Seattle,USA,-122.3321,47.6062,[-122.8321 47.1062 -121.8321 48.1062],3.207,1.476,4.209,3.129,3.388,1.859,4.702,3.557,44.0,571.0
2015-03-21,Seattle,USA,-122.3321,47.6062,[-122.8321 47.1062 -121.8321 48.1062],3.207,1.476,4.209,3.129,3.398,1.855,4.703,3.54,44.0,572.0
2015-03-22,Seattle,USA,-122.3321,47.6062,[-122.8321 47.1062 -121.8321 48.1062],3.207,1.476,4.209,3.129,3.319,1.788,4.663,3.507,44.0,570.0
2015-03-23,Seattle,USA,-122.3321,47.6062,[-122.8321 47.1062 -121.8321 48.1062],3.203,1.476,4.209,3.066,3.292,1.819,4.647,3.421,45.0,573.0
2015-03-24,Seattle,USA,-122.3321,47.6062,[-122.8321 47.1062 -121.8321 48.1062],3.331,2.128,4.475,3.472,3.304,1.745,4.633,3.383,55.0,583.0
2015-03-25,Seattle,USA,-122.3321,47.6062,[-122.8321 47.1062 -121.8321 48.1062],3.331,2.128,4.475,3.472,3.272,1.593,4.766,3.465,55.0,581.0
2015-03-26,Seattle,USA,-122.3321,47.6062,[-122.8321 47.1062 -121.8321 48.1062],3.566,2.147,5.061,3.535,3.459,1.805,4.879,3.514,71.0,582.0
2015-03-27,Seattle,USA,-122.3321,47.6062,[-122.8321 47.1062 -121.8321 48.1062],3.566,2.147,5.061,3.535,3.183,1.749,4.597,3.428,71.0,584.0
2015-03-28,Seattle,USA,-122.3321,47.6062,[-122.8321 47.1062 -121.8321 48.1062],3.203,2.075,4.209,3.333,3.079,1.758,4.465,3.345,79.0,589.0
2015-03-29,Seattle,USA,-122.3321,47.6062,[-122.8321 47.1062 -121.8321 48.1062],3.0,1.813,4.209,3.166,2.908,1.767,4.26,3.209,99.0,623.0
2015-03-30,Seattle,USA,-122.3321,47.6062,[-122.8321 47.1062 -121.8321 48.1062],3.0,1.813,4.209,3.166,2.89,1.772,4.233,3.195,99.0,619.0
2015-03-31,Seattle,USA,-122.3321,47.6062,[-122.8321 47.1062 -121.8321 48.1062],3.0,1.813,4.209,3.166,2.896,1.761,4.224,3.183,99.0,635.0
2015-04-01,Seattle,USA,-122.3321,47.6062,[-122.8321 47.1062 -121.8321 48.1062],2.974,1.563,4.038,2.957,2.866,1.662,4.156,3.099,90.0,627.0
2015-04-02,Seattle,USA,-122.3321,47.6062,[-122.8321 47.1062 -121.8321 48.1062],3.0,1.691,4.05,3.277,2.91,1.686,4.144,3.176,117.0,630.0
2015-04-03,Seattle,USA,-122.3321,47.6062,[-122.8321 47.1062 -121.8321 48.1062],3.1,1.813,5.061,3.552,2.47,1.548,3.956,2.91,93.0,631.0
2015-04-04,Seattle,USA,-122.3321,47.6062,[-122.8321 47.1062 -121.8321 48.1062],3.0,1.813,4.511,3.438,2.453,1.555,3.848,2.908,83.0,635.0
2015-04-05,Seattle,USA,-122.3321,47.6062,[-122.8321 47.1062 -121.8321 48.1062],3.0,1.704,4.223,3.412,2.434,1.511,3.753,2.895,88.0,630.0
2015-04-06,Seattle,USA,-122.3321,47.6062,[-122.8321 47.1062 -121.8321 48.1062],3.0,1.704,4.223,3.412,2.464,1.53,3.753,2.866,88.0,631.0
2015-04-07,Seattle,USA,-122.3321,47.6062,[-122.8321 47.1062 -121.8321 48.1062],3.0,1.802,4.677,3.454,2.424,1.506,3.79,2.822,93.0,627.0
2015-04-08,Seattle,USA,-122.3321,47.6062,[-122.8321 47.1062 -121.8321 48.1062],2.974,1.563,3.826,3.143,2.308,1.372,3.447,2.643,85.0,625.0
2015-04-09,Seattle,USA,-122.3321,47.6062,[-122.8321 47.1062 -121.8321 48.1062],2.713,1.667,3.76,2.971,2.301,1.416,3.431,2.532,122.0,653.0
2015-04-10,Seattle,USA,-122.3321,47.6062,[-122.8321 47.1062 -121.8321 48.1062],2.282,1.563,3.565,2.824,2.149,1.205,3.403,2.475,106.0,651.0
2015-04-11,Seattle,USA,-122.3321,47.6062,[-122.8321 47.1062 -121.8321 48.1062],2.139,1.486,3.145,2.549,1.966,0.917,3.037,2.155,144.0,664.0
2015-04-12,Seattle,USA,-122.3321,47.6062,[-122.8321 47.1062 -121.8321 48.1062],2.185,1.273,3.269,2.551,1.922,0.888,3.176,2.215,136.0,694.0
2015-04-13,Seattle,USA,-122.3321,47.6062,[-122.8321 47.1062 -121.8321 48.1062],2.511,1.385,3.979,2.881,2.093,0.979,3.493,2.396,127.0,733.0
2015-04-14,Seattle,USA,-122.3321,47.6062,[-122.8321 47.1062 -121.8321 48.1062],2.511,1.385,3.979,2.881,2.21,1.127,3.707,2.511,127.0,741.0
2015-04-15,Seattle,USA,-122.3321,47.6062,[-122.8321 47.1062 -121.8321 48.1062],2.511,1.385,3.979,2.881,2.24,1.044,3.608,2.476,127.0,690.0
2015-04-16,Seattle,USA,-122.3321,47.6062,[-122.8321 47.1062 -121.8321 48.1062],2.511,1.385,3.979,2.881,1.982,0.934,3.5,2.356,127.0,704.0
2015-04-17,Seattle,USA,-122.3321,47.6062,[-122.8321 47.1062 -121.8321 48.1062],2.261,1.344,3.565,2.517,2.107,0.981,3.453,2.339,100.0,695.0
2015-04-18,Seattle,USA,-122.3321,47.6062,[-122.8321 47.1062 -121.8321 48.1062],2.268,1.344,3.565,2.534,2.33,1.027,3.878,2.512,103.0,700.0
2015-04-19,Seattle,USA,-122.3321,47.6062,[-122.8321 47.1062 -121.8321 48.1062],2.282,1.486,3.768,2.628,2.352,0.98,3.912,2.529,102.0,700.0
2015-04-20,Seattle,USA,-122.3321,47.6062,[-122.8321 47.1062 -121.8321 48.1062],2.268,1.486,3.393,2.495,2.254,1.009,3.81,2.476,121.0,702.0
2015-04-21,Seattle,USA,-122.3321,47.6062,[-122.8321 47.1062 -121.8321 48.1062],2.268,1.486,3.393,2.495,2.28,1.025,3.858,2.487,121.0,695.0
2015-04-22,Seattle,USA,-122.3321,47.6062,[-122.8321 47.1062 -121.8321 48.1062],2.461,1.5,3.393,2.515,2.436,1.029,3.762,2.492,118.0,692.0
2015-04-23,Seattle,USA,-122.3321,47.6062,[-122.8321 47.1062 -121.8321 48.1062],2.535,1.511,3.565,2.576,2.443,1.046,3.898,2.51,144.0,688.0
2015-04-24,Seattle,USA,-122.3321,47.6062,[-122.8321 47.1062 -121.8321 48.1062],2.511,1.5,3.768,2.551,2.36,1.003,3.835,2.473,114.0,664.0
2015-04-25,Seattle,USA,-122.3321,47.6062,[-122.8321 47.1062 -121.8321 48.1062],2.257,1.219,3.283,2.315,2.25,0.984,3.786,2.414,145.0,666.0
2015-04-26,Seattle,USA,-122.3321,47.6062,[-122.8321 47.1062 -121.8321 48.1062],2.291,1.267,3.393,2.46,2.38,1.096,4.041,2.66,107.0,654.0
2015-04-27,Seattle,USA,-122.3321,47.6062,[-122.8321 47.1062 -121.8321 48.1062],2.116,0.696,3.393,2.31,2.289,0.982,3.772,2.533,129.0,627.0
2015-04-28,Seattle,USA,-122.3321,47.6062,[-122.8321 47.1062 -121.8321 48.1062],1.994,0.546,2.986,2.024,2.246,0.96,3.698,2.474,118.0,593.0
2015-04-29,Seattle,USA,-122.3321,47.6062,[-122.8321 47.1062 -121.8321 48.1062],2.073,0.583,2.986,2.046,2.256,0.96,3.685,2.43,121.0,578.0
2015-04-30,Seattle,USA,-122.3321,47.6062,[-122.8321 47.1062 -121.8321 48.1062],2.116,0.96,3.283,2.274,2.296,1.115,3.65,2.469,148.0,613.0
2015-05-01,Seattle,USA,-122.3321,47.6062,[-122.8321 47.1062 -121.8321 48.1062],2.116,0.888,3.365,2.28,2.337,1.184,3.789,2.539,164.0,613.0
2015-05-02,Seattle,USA,-122.3321,47.6062,[-122.8321 47.1062 -121.8321 48.1062],2.254,1.219,3.41,2.41,2.396,1.257,3.772,2.564,197.0,620.0
2015-05-03,Seattle,USA,-122.3321,47.6062,[-122.8321 47.1062 -121.8321 48.1062],2.185,1.219,3.41,2.4,2.417,1.33,3.739,2.576,194.0,613.0
2015-05-04,Seattle,USA,-122.3321,47.6062,[-122.8321 47.1062 -121.8321 48.1062],2.185,1.219,3.41,2.4,2.427,1.316,3.719,2.574,194.0,616.0
2015-05-05,Seattle,USA,-122.3321,47.6062,[-122.8321 47.1062 -121.8321 48.1062],2.185,1.219,3.6,2.46,2.402,1.339,3.636,2.595,170.0,616.0
2015-05-06,Seattle,USA,-122.3321,47.6062,[-122.8321 47.1062 -121.8321 48.1062],2.185,1.219,3.6,2.46,2.405,1.372,3.649,2.598,170.0,619.0
2015-05-07,Seattle,USA,-122.3321,47.6062,[-122.8321 47.1062 -121.8321 48.1062],2.073,1.201,3.546,2.43,2.382,1.426,3.59,2.572,176.0,618.0
2015-05-08,Seattle,USA,-122.3321,47.6062,[-122.8321 47.1062 -121.8321 48.1062],2.047,1.219,3.41,2.394,2.384,1.427,3.489,2.557,148.0,614.0
2015-05-09,Seattle,USA,-122.3321,47.6062,[-122.8321 47.1062 -121.8321 48.1062],2.073,1.18,3.41,2.398,2.417,1.486,3.501,2.585,141.0,613.0
2015-05-10,Seattle,USA,-122.3321,47.6062,[-122.8321 47.1062 -121.8321 48.1062],2.322,1.379,3.807,2.701,2.471,1.534,3.566,2.643,111.0,616.0
2015-05-11,Seattle,USA,-122.3321,47.6062,[-122.8321 47.1062 -121.8321 48.1062],2.421,1.398,3.716,2.584,2.391,1.504,3.515,2.529,140.0,630.0
2015-05-12,Seattle,USA,-122.3321,47.6062,[-122.8321 47.1062 -121.8321 48.1062],2.514,1.781,3.8,2.802,2.435,1.578,3.517,2.58,118.0,627.0
2015-05-13,Seattle,USA,-122.3321,47.6062,[-122.8321 47.1062 -121.8321 48.1062],2.514,1.584,3.8,2.776,2.49,1.598,3.544,2.629,154.0,641.0
2015-05-14,Seattle,USA,-122.3321,47.6062,[-122.8321 47.1062 -121.8321 48.1062],2.475,1.527,3.802,2.78,2.477,1.522,3.596,2.594,151.0,670.0
2015-05-15,Seattle,USA,-122.3321,47.6062,[-122.8321 47.1062 -121.8321 48.1062],2.421,1.438,3.716,2.6,2.576,1.482,3.689,2.624,124.0,715.0
2015-05-16,Seattle,USA,-122.3321,47.6062,[-122.8321 47.1062 -121.8321 48.1062],2.421,1.679,3.603,2.66,2.688,1.569,3.852,2.702,108.0,721.0
2015-05-17,Seattle,USA,-122.3321,47.6062,[-122.8321 47.1062 -121.8321 48.1062],2.514,1.363,3.454,2.486,2.599,1.435,3.817,2.612,75.0,678.0
2015-05-18,Seattle,USA,-122.3321,47.6062,[-122.8321 47.1062 -121.8321 48.1062],2.514,1.363,3.454,2.486,2.541,1.459,3.853,2.61,75.0,687.0
2015-05-19,Seattle,USA,-122.3321,47.6062,[-122.8321 47.1062 -121.8321 48.1062],2.514,1.363,3.454,2.486,2.554,1.402,3.79,2.587,75.0,680.0
2015-05-20,Seattle,USA,-122.3321,47.6062,[-122.8321 47.1062 -121.8321 48.1062],2.757,1.584,3.985,3.164,2.484,1.298,3.717,2.629,107.0,685.0
2015-05-21,Seattle,USA,-122.3321,47.6062,[-122.8321 47.1062 -121.8321 48.1062],2.757,1.584,3.985,3.164,2.471,1.221,3.693,2.587,107.0,687.0
2015-05-22,Seattle,USA,-122.3321,47.6062,[-122.8321 47.1062 -121.8321 48.1062],2.948,1.584,4.353,3.198,2.641,1.318,3.995,2.753,122.0,688.0
2015-05-23,Seattle,USA,-122.3321,47.6062,[-122.8321 47.1062 -121.8321 48.1062],2.834,1.56,4.184,3.127,2.704,1.378,4.045,2.796,147.0,687.0
2015-05-24,Seattle,USA,-122.3321,47.6062,[-122.8321 47.1062 -121.8321 48.1062],2.682,1.455,4.184,3.078,2.63,1.358,4.106,2.803,159.0,685.0
2015-05-25,Seattle,USA,-122.3321,47.6062,[-122.8321 47.1062 -121.8321 48.1062],2.747,1.455,4.184,3.081,2.669,1.375,4.106,2.81,158.0,685.0
2015-05-26,Seattle,USA,-122.3321,47.6062,[-122.8321 47.1062 -121.8321 48.1062],3.075,1.584,4.588,3.333,2.671,1.43,4.045,2.817,129.0,677.0
2015-05-27,Seattle,USA,-122.3321,47.6062,[-122.8321 47.1062 -121.8321 48.1062],3.075,1.584,4.588,3.333,2.675,1.441,4.061,2.835,129.0,678.0
2015-05-28,Seattle,USA,-122.3321,47.6062,[-122.8321 47.1062 -121.8321 48.1062],3.18,2.079,5.129,3.591,2.593,1.491,4.103,2.823,93.0,665.0
2015-05-29,Seattle,USA,-122.3321,47.6062,[-122.8321 47.1062 -121.8321 48.1062],2.568,1.43,4.353,3.104,2.585,1.361,4.041,2.812,131.0,638.0
2015-05-30,Seattle,USA,-122.3321,47.6062,[-122.8321 47.1062 -121.8321 48.1062],2.568,1.43,4.353,3.096,2.604,1.356,4.101,2.806,133.0,598.0
2015-05-31,Seattle,USA,-122.3321,47.6062,[-122.8321 47.1062 -121.8321 48.1062],2.462,1.234,3.85,2.821,2.526,1.276,3.886,2.678,162.0,582.0
2015-06-01,Seattle,USA,-122.3321,47.6062,[-122.8321 47.1062 -121.8321 48.1062],2.462,1.176,3.977,2.826,2.605,1.286,3.958,2.713,190.0,616.0
2015-06-02,Seattle,USA,-122.3321,47.6062,[-122.8321 47.1062 -121.8321 48.1062],2.38,1.176,3.85,2.719,2.474,1.28,3.914,2.659,220.0,619.0
2015-06-03,Seattle,USA,-122.3321,47.6062,[-122.8321 47.1062 -121.8321 48.1062],2.376,1.234,3.634,2.7,2.458,1.279,3.845,2.651,252.0,631.0
2015-06-04,Seattle,USA,-122.3321,47.6062,[-122.8321 47.1062 -121.8321 48.1062],2.112,1.167,3.438,2.377,2.529,1.409,3.843,2.659,220.0,623.0
2015-06-05,Seattle,USA,-122.3321,47.6062,[-122.8321 47.1062 -121.8321 48.1062],2.215,1.176,3.49,2.428,2.493,1.427,3.863,2.641,242.0,627.0
2015-06-06,Seattle,USA,-122.3321,47.6062,[-122.8321 47.1062 -121.8321 48.1062],2.049,1.074,3.438,2.29,2.369,1.377,3.718,2.531,218.0,637.0
2015-06-07,Seattle,USA,-122.3321,47.6062,[-122.8321 47.1062 -121.8321 48.1062],2.029,1.157,3.35,2.277,2.328,1.311,3.618,2.481,216.0,639.0
2015-06-08,Seattle,USA,-122.3321,47.6062,[-122.8321 47.1062 -121.8321 48.1062],2.029,1.14,3.438,2.29,2.321,1.257,3.607,2.474,232.0,638.0
2015-06-09,Seattle,USA,-122.3321,47.6062,[-122.8321 47.1062 -121.8321 48.1062],2.113,1.222,3.463,2.402,2.286,1.244,3.567,2.501,266.0,636.0
2015-06-10,Seattle,USA,-122.3321,47.6062,[-122.8321 47.1062 -121.8321 48.1062],2.164,1.222,3.533,2.463,2.411,1.3,3.705,2.587,301.0,631.0
2015-06-11,Seattle,USA,-122.3321,47.6062,[-122.8321 47.1062 -121.8321 48.1062],2.164,1.222,3.533,2.463,2.429,1.365,3.727,2.565,301.0,637.0
2015-06-12,Seattle,USA,-122.3321,47.6062,[-122.8321 47.1062 -121.8321 48.1062],2.199,1.234,3.543,2.511,2.431,1.416,3.727,2.582,320.0,660.0
2015-06-13,Seattle,USA,-122.3321,47.6062,[-122.8321 47.1062 -121.8321 48.1062],2.376,1.315,3.643,2.592,2.381,1.298,3.821,2.597,282.0,663.0
2015-06-14,Seattle,USA,-122.3321,47.6062,[-122.8321 47.1062 -121.8321 48.1062],2.376,1.433,3.643,2.643,2.377,1.362,3.766,2.585,319.0,675.0
2015-06-15,Seattle,USA,-122.3321,47.6062,[-122.8321 47.1062 -121.8321 48.1062],2.41,1.492,3.815,2.747,2.356,1.436,3.815,2.624,293.0,704.0
2015-06-16,Seattle,USA,-122.3321,47.6062,[-122.8321 47.1062 -121.8321 48.1062],2.458,1.503,3.961,2.813,2.353,1.427,3.864,2.625,295.0,744.0
2015-06-17,Seattle,USA,-122.3321,47.6062,[-122.8321 47.1062 -121.8321 48.1062],2.583,1.543,4.03,2.898,2.373,1.462,3.727,2.601,265.0,750.0
2015-06-18,Seattle,USA,-122.3321,47.6062,[-122.8321 47.1062 -121.8321 48.1062],2.583,1.528,4.094,2.95,2.412,1.483,3.807,2.656,233.0,701.0
2015-06-19,Seattle,USA,-122.3321,47.6062,[-122.8321 47.1062 -121.8321 48.1062],2.47,1.492,4.056,2.827,2.405,1.47,3.907,2.616,269.0,715.0
2015-06-20,Seattle,USA,-122.3321,47.6062,[-122.8321 47.1062 -121.8321 48.1062],2.45,1.448,4.03,2.817,2.43,1.482,3.907,2.649,247.0,707.0